Year,Month,Day,Hour,Minute,Value (Times are PST for temperature in C)
2021,06,02,00,00,20.70
2021,06,02,00,01,20.80
2021,06,02,00,02,20.80
2021,06,02,00,03,20.80
2021,06,02,00,04,20.80
2021,06,02,00,05,20.80
2021,06,02,00,06,20.80
2021,06,02,00,07,20.80
2021,06,02,00,08,20.80
2021,06,02,00,09,20.80
2021,06,02,00,10,20.80
2021,06,02,00,11,20.70
2021,06,02,00,12,20.70
2021,06,02,00,13,20.70
2021,06,02,00,14,20.70
2021,06,02,00,15,20.70
2021,06,02,00,16,20.60
2021,06,02,00,17,20.70
2021,06,02,00,18,20.70
2021,06,02,00,19,20.70
2021,06,02,00,20,20.70
2021,06,02,00,21,20.70
2021,06,02,00,22,20.70
2021,06,02,00,23,20.80
2021,06,02,00,24,20.70
2021,06,02,00,25,20.70
2021,06,02,00,26,20.70
2021,06,02,00,27,20.60
2021,06,02,00,28,20.60
2021,06,02,00,29,20.60
2021,06,02,00,30,20.60
2021,06,02,00,31,20.60
2021,06,02,00,32,20.60
2021,06,02,00,33,20.50
2021,06,02,00,34,20.50
2021,06,02,00,35,20.50
2021,06,02,00,36,20.60
2021,06,02,00,37,20.60
2021,06,02,00,38,20.60
2021,06,02,00,39,20.60
2021,06,02,00,40,20.50
2021,06,02,00,41,20.50
2021,06,02,00,42,20.50
2021,06,02,00,43,20.40
2021,06,02,00,44,20.40
2021,06,02,00,45,20.30
2021,06,02,00,46,20.20
2021,06,02,00,47,20.10
2021,06,02,00,48,20.00
2021,06,02,00,49,19.90
2021,06,02,00,50,19.90
2021,06,02,00,51,19.90
2021,06,02,00,52,19.80
2021,06,02,00,53,19.80
2021,06,02,00,54,19.70
2021,06,02,00,55,19.70
2021,06,02,00,56,19.60
2021,06,02,00,57,19.60
2021,06,02,00,58,19.50
2021,06,02,00,59,19.50
2021,06,02,01,00,19.50
2021,06,02,01,01,19.40
2021,06,02,01,02,19.40
2021,06,02,01,03,19.30
2021,06,02,01,04,19.20
2021,06,02,01,05,19.10
2021,06,02,01,06,19.10
2021,06,02,01,07,19.00
2021,06,02,01,08,18.90
2021,06,02,01,09,18.90
2021,06,02,01,10,18.90
2021,06,02,01,11,18.80
2021,06,02,01,12,18.80
2021,06,02,01,13,18.80
2021,06,02,01,14,18.70
2021,06,02,01,15,18.70
2021,06,02,01,16,18.70
2021,06,02,01,17,18.70
2021,06,02,01,18,18.70
2021,06,02,01,19,18.70
2021,06,02,01,20,18.70
2021,06,02,01,21,18.70
2021,06,02,01,22,18.70
2021,06,02,01,23,18.70
2021,06,02,01,24,18.70
2021,06,02,01,25,18.70
2021,06,02,01,26,18.70
2021,06,02,01,27,18.70
2021,06,02,01,28,18.80
2021,06,02,01,29,18.80
2021,06,02,01,30,18.80
2021,06,02,01,31,18.80
2021,06,02,01,32,18.80
2021,06,02,01,33,18.80
2021,06,02,01,34,18.70
2021,06,02,01,35,18.70
2021,06,02,01,36,18.70
2021,06,02,01,37,18.70
2021,06,02,01,38,18.70
2021,06,02,01,39,18.70
2021,06,02,01,40,18.60
2021,06,02,01,41,18.60
2021,06,02,01,42,18.60
2021,06,02,01,43,18.60
2021,06,02,01,44,18.50
2021,06,02,01,45,18.50
2021,06,02,01,46,18.50
2021,06,02,01,47,18.40
2021,06,02,01,48,18.40
2021,06,02,01,49,18.40
2021,06,02,01,50,18.40
2021,06,02,01,51,18.40
2021,06,02,01,52,18.30
2021,06,02,01,53,18.30
2021,06,02,01,54,18.30
2021,06,02,01,55,18.30
2021,06,02,01,56,18.30
2021,06,02,01,57,18.30
2021,06,02,01,58,18.30
2021,06,02,01,59,18.20
2021,06,02,02,00,18.20
2021,06,02,02,01,18.20
2021,06,02,02,02,18.20
2021,06,02,02,03,18.20
2021,06,02,02,04,18.20
2021,06,02,02,05,18.20
2021,06,02,02,06,18.20
2021,06,02,02,07,18.20
2021,06,02,02,08,18.10
2021,06,02,02,09,18.10
2021,06,02,02,10,18.10
2021,06,02,02,11,18.00
2021,06,02,02,12,17.90
2021,06,02,02,13,17.90
2021,06,02,02,14,17.90
2021,06,02,02,15,17.90
2021,06,02,02,16,17.90
2021,06,02,02,17,17.90
2021,06,02,02,18,17.90
2021,06,02,02,19,17.90
2021,06,02,02,20,17.90
2021,06,02,02,21,17.90
2021,06,02,02,22,17.90
2021,06,02,02,23,17.90
2021,06,02,02,24,17.90
2021,06,02,02,25,17.90
2021,06,02,02,26,17.90
2021,06,02,02,27,17.90
2021,06,02,02,28,18.00
2021,06,02,02,29,18.10
2021,06,02,02,30,18.10
2021,06,02,02,31,18.10
2021,06,02,02,32,18.10
2021,06,02,02,33,18.10
2021,06,02,02,34,18.20
2021,06,02,02,35,18.20
2021,06,02,02,36,18.20
2021,06,02,02,37,18.20
2021,06,02,02,38,18.20
2021,06,02,02,39,18.20
2021,06,02,02,40,18.20
2021,06,02,02,41,18.20
2021,06,02,02,42,18.20
2021,06,02,02,43,18.20
2021,06,02,02,44,18.20
2021,06,02,02,45,18.20
2021,06,02,02,46,18.20
2021,06,02,02,47,18.20
2021,06,02,02,48,18.20
2021,06,02,02,49,18.20
2021,06,02,02,50,18.20
2021,06,02,02,51,18.20
2021,06,02,02,52,18.10
2021,06,02,02,53,18.10
2021,06,02,02,54,18.10
2021,06,02,02,55,17.90
2021,06,02,02,56,17.90
2021,06,02,02,57,17.90
2021,06,02,02,58,17.90
2021,06,02,02,59,17.80
2021,06,02,03,00,17.80
2021,06,02,03,01,17.70
2021,06,02,03,02,17.70
2021,06,02,03,03,17.70
2021,06,02,03,04,17.70
2021,06,02,03,05,17.70
2021,06,02,03,06,17.70
2021,06,02,03,07,17.70
2021,06,02,03,08,17.70
2021,06,02,03,09,17.70
2021,06,02,03,10,17.70
2021,06,02,03,11,17.70
2021,06,02,03,12,17.70
2021,06,02,03,13,17.60
2021,06,02,03,14,17.60
2021,06,02,03,15,17.60
2021,06,02,03,16,17.60
2021,06,02,03,17,17.50
2021,06,02,03,18,17.50
2021,06,02,03,19,17.50
2021,06,02,03,20,17.50
2021,06,02,03,21,17.40
2021,06,02,03,22,17.40
2021,06,02,03,23,17.40
2021,06,02,03,24,17.40
2021,06,02,03,25,17.40
2021,06,02,03,26,17.40
2021,06,02,03,27,17.30
2021,06,02,03,28,17.30
2021,06,02,03,29,17.30
2021,06,02,03,30,17.30
2021,06,02,03,31,17.30
2021,06,02,03,32,17.30
2021,06,02,03,33,17.30
2021,06,02,03,34,17.30
2021,06,02,03,35,17.30
2021,06,02,03,36,17.30
2021,06,02,03,37,17.30
2021,06,02,03,38,17.30
2021,06,02,03,39,17.30
2021,06,02,03,40,17.30
2021,06,02,03,41,17.30
2021,06,02,03,42,17.30
2021,06,02,03,43,17.20
2021,06,02,03,44,17.20
2021,06,02,03,45,17.20
2021,06,02,03,46,17.10
2021,06,02,03,47,17.10
2021,06,02,03,48,17.10
2021,06,02,03,49,17.00
2021,06,02,03,50,17.00
2021,06,02,03,51,16.90
2021,06,02,03,52,16.90
2021,06,02,03,53,16.90
2021,06,02,03,54,16.80
2021,06,02,03,55,16.80
2021,06,02,03,56,16.70
2021,06,02,03,57,16.70
2021,06,02,03,58,16.60
2021,06,02,03,59,16.60
2021,06,02,04,00,16.60
2021,06,02,04,01,16.60
2021,06,02,04,02,16.50
2021,06,02,04,03,16.40
2021,06,02,04,04,16.40
2021,06,02,04,05,16.40
2021,06,02,04,06,16.40
2021,06,02,04,07,16.40
2021,06,02,04,08,16.30
2021,06,02,04,09,16.30
2021,06,02,04,10,16.20
2021,06,02,04,11,16.20
2021,06,02,04,12,16.10
2021,06,02,04,13,16.10
2021,06,02,04,14,16.10
2021,06,02,04,15,16.00
2021,06,02,04,16,15.80
2021,06,02,04,17,15.70
2021,06,02,04,18,15.60
2021,06,02,04,19,15.50
2021,06,02,04,20,15.40
2021,06,02,04,21,15.30
2021,06,02,04,22,15.30
2021,06,02,04,23,15.20
2021,06,02,04,24,15.10
2021,06,02,04,25,15.10
2021,06,02,04,26,15.10
2021,06,02,04,27,15.00
2021,06,02,04,28,15.00
2021,06,02,04,29,15.00
2021,06,02,04,30,15.00
2021,06,02,04,31,15.00
2021,06,02,04,32,15.00
2021,06,02,04,33,15.00
2021,06,02,04,34,15.00
2021,06,02,04,35,15.00
2021,06,02,04,36,14.90
2021,06,02,04,37,14.90
2021,06,02,04,38,14.90
2021,06,02,04,39,14.90
2021,06,02,04,40,14.90
2021,06,02,04,41,14.90
2021,06,02,04,42,15.00
2021,06,02,04,43,15.00
2021,06,02,04,44,15.10
2021,06,02,04,45,15.10
2021,06,02,04,46,15.20
2021,06,02,04,47,15.20
2021,06,02,04,48,15.20
2021,06,02,04,49,15.20
2021,06,02,04,50,15.20
2021,06,02,04,51,15.10
2021,06,02,04,52,15.10
2021,06,02,04,53,15.10
2021,06,02,04,54,15.10
2021,06,02,04,55,15.10
2021,06,02,04,56,15.10
2021,06,02,04,57,15.10
2021,06,02,04,58,15.00
2021,06,02,04,59,15.00
2021,06,02,05,00,15.00
2021,06,02,05,01,14.90
2021,06,02,05,02,14.90
2021,06,02,05,03,14.90
2021,06,02,05,04,14.90
2021,06,02,05,05,14.90
2021,06,02,05,06,14.90
2021,06,02,05,07,14.90
2021,06,02,05,08,15.00
2021,06,02,05,09,15.00
2021,06,02,05,10,15.00
2021,06,02,05,11,15.10
2021,06,02,05,12,15.10
2021,06,02,05,13,15.10
2021,06,02,05,14,15.10
2021,06,02,05,15,15.10
2021,06,02,05,16,15.10
2021,06,02,05,17,15.10
2021,06,02,05,18,15.10
2021,06,02,05,19,15.10
2021,06,02,05,20,15.20
2021,06,02,05,21,15.20
2021,06,02,05,22,15.20
2021,06,02,05,23,15.20
2021,06,02,05,24,15.20
2021,06,02,05,25,15.20
2021,06,02,05,26,15.30
2021,06,02,05,27,15.30
2021,06,02,05,28,15.30
2021,06,02,05,29,15.50
2021,06,02,05,30,15.50
2021,06,02,05,31,15.60
2021,06,02,05,32,15.70
2021,06,02,05,33,15.80
2021,06,02,05,34,15.80
2021,06,02,05,35,15.90
2021,06,02,05,36,16.00
2021,06,02,05,37,16.10
2021,06,02,05,38,16.30
2021,06,02,05,39,16.40
2021,06,02,05,40,16.50
2021,06,02,05,41,16.60
2021,06,02,05,42,16.80
2021,06,02,05,43,16.90
2021,06,02,05,44,17.00
2021,06,02,05,45,17.20
2021,06,02,05,46,17.40
2021,06,02,05,47,17.50
2021,06,02,05,48,17.70
2021,06,02,05,49,17.90
2021,06,02,05,50,18.10
2021,06,02,05,51,18.20
2021,06,02,05,52,18.30
2021,06,02,05,53,18.40
2021,06,02,05,54,18.50
2021,06,02,05,55,18.60
2021,06,02,05,56,18.70
2021,06,02,05,57,18.80
2021,06,02,05,58,18.90
2021,06,02,05,59,19.00
2021,06,02,06,00,19.10
2021,06,02,06,01,19.10
2021,06,02,06,02,19.20
2021,06,02,06,03,19.20
2021,06,02,06,04,19.30
2021,06,02,06,05,19.30
2021,06,02,06,06,19.20
2021,06,02,06,07,19.10
2021,06,02,06,08,19.10
2021,06,02,06,09,18.90
2021,06,02,06,10,18.70
2021,06,02,06,11,18.50
2021,06,02,06,12,18.20
2021,06,02,06,13,18.00
2021,06,02,06,14,17.90
2021,06,02,06,15,17.80
2021,06,02,06,16,17.70
2021,06,02,06,17,17.60
2021,06,02,06,18,17.50
2021,06,02,06,19,17.40
2021,06,02,06,20,17.40
2021,06,02,06,21,17.30
2021,06,02,06,22,17.30
2021,06,02,06,23,17.30
2021,06,02,06,24,17.20
2021,06,02,06,25,17.10
2021,06,02,06,26,17.10
2021,06,02,06,27,17.00
2021,06,02,06,28,17.00
2021,06,02,06,29,17.00
2021,06,02,06,30,16.90
2021,06,02,06,31,16.80
2021,06,02,06,32,16.70
2021,06,02,06,33,16.60
2021,06,02,06,34,16.50
2021,06,02,06,35,16.40
2021,06,02,06,36,16.40
2021,06,02,06,37,16.40
2021,06,02,06,38,16.50
2021,06,02,06,39,16.60
2021,06,02,06,40,16.60
2021,06,02,06,41,16.70
2021,06,02,06,42,16.70
2021,06,02,06,43,16.70
2021,06,02,06,44,16.80
2021,06,02,06,45,16.80
2021,06,02,06,46,16.80
2021,06,02,06,47,16.80
2021,06,02,06,48,16.80
2021,06,02,06,49,16.80
2021,06,02,06,50,16.70
2021,06,02,06,51,16.70
2021,06,02,06,52,16.70
2021,06,02,06,53,16.60
2021,06,02,06,54,16.60
2021,06,02,06,55,16.60
2021,06,02,06,56,16.60
2021,06,02,06,57,16.70
2021,06,02,06,58,16.70
2021,06,02,06,59,16.80
2021,06,02,07,00,16.90
2021,06,02,07,01,17.00
2021,06,02,07,02,17.10
2021,06,02,07,03,17.20
2021,06,02,07,04,17.30
2021,06,02,07,05,17.30
2021,06,02,07,06,17.40
2021,06,02,07,07,17.50
2021,06,02,07,08,17.60
2021,06,02,07,09,17.60
2021,06,02,07,10,17.60
2021,06,02,07,11,17.50
2021,06,02,07,12,17.60
2021,06,02,07,13,17.60
2021,06,02,07,14,17.70
2021,06,02,07,15,17.70
2021,06,02,07,16,17.80
2021,06,02,07,17,17.80
2021,06,02,07,18,17.80
2021,06,02,07,19,17.90
2021,06,02,07,20,17.90
2021,06,02,07,21,17.90
2021,06,02,07,22,17.90
2021,06,02,07,23,18.00
2021,06,02,07,24,18.10
2021,06,02,07,25,18.10
2021,06,02,07,26,18.00
2021,06,02,07,27,18.00
2021,06,02,07,28,18.00
2021,06,02,07,29,17.90
2021,06,02,07,30,17.80
2021,06,02,07,31,17.80
2021,06,02,07,32,17.90
2021,06,02,07,33,17.90
2021,06,02,07,34,17.90
2021,06,02,07,35,17.90
2021,06,02,07,36,17.90
2021,06,02,07,37,17.90
2021,06,02,07,38,17.90
2021,06,02,07,39,17.90
2021,06,02,07,40,18.00
2021,06,02,07,41,18.10
2021,06,02,07,42,18.20
2021,06,02,07,43,18.20
2021,06,02,07,44,18.30
2021,06,02,07,45,18.40
2021,06,02,07,46,18.50
2021,06,02,07,47,18.60
2021,06,02,07,48,18.70
2021,06,02,07,49,18.70
2021,06,02,07,50,18.80
2021,06,02,07,51,18.80
2021,06,02,07,52,18.90
2021,06,02,07,53,18.90
2021,06,02,07,54,18.90
2021,06,02,07,55,18.90
2021,06,02,07,56,18.90
2021,06,02,07,57,18.90
2021,06,02,07,58,18.90
2021,06,02,07,59,18.70
2021,06,02,08,00,18.70
2021,06,02,08,01,18.60
2021,06,02,08,02,18.60
2021,06,02,08,03,18.60
2021,06,02,08,04,18.60
2021,06,02,08,05,18.50
2021,06,02,08,06,18.50
2021,06,02,08,07,18.30
2021,06,02,08,08,18.10
2021,06,02,08,09,17.90
2021,06,02,08,10,17.90
2021,06,02,08,11,17.80
2021,06,02,08,12,17.80
2021,06,02,08,13,17.70
2021,06,02,08,14,17.50
2021,06,02,08,15,17.50
2021,06,02,08,16,17.40
2021,06,02,08,17,17.50
2021,06,02,08,18,17.50
2021,06,02,08,19,17.60
2021,06,02,08,20,17.70
2021,06,02,08,21,17.70
2021,06,02,08,22,17.70
2021,06,02,08,23,17.70
2021,06,02,08,24,17.60
2021,06,02,08,25,17.60
2021,06,02,08,26,17.50
2021,06,02,08,27,17.40
2021,06,02,08,28,17.40
2021,06,02,08,29,17.40
2021,06,02,08,30,17.50
2021,06,02,08,31,17.70
2021,06,02,08,32,17.80
2021,06,02,08,33,17.90
2021,06,02,08,34,17.90
2021,06,02,08,35,18.00
2021,06,02,08,36,18.10
2021,06,02,08,37,18.10
2021,06,02,08,38,18.10
2021,06,02,08,39,18.10
2021,06,02,08,40,18.20
2021,06,02,08,41,18.20
2021,06,02,08,42,18.20
2021,06,02,08,43,18.20
2021,06,02,08,44,18.20
2021,06,02,08,45,18.20
2021,06,02,08,46,18.20
2021,06,02,08,47,18.20
2021,06,02,08,48,18.30
2021,06,02,08,49,18.40
2021,06,02,08,50,18.50
2021,06,02,08,51,18.50
2021,06,02,08,52,18.60
2021,06,02,08,53,18.60
2021,06,02,08,54,18.50
2021,06,02,08,55,18.50
2021,06,02,08,56,18.50
2021,06,02,08,57,18.60
2021,06,02,08,58,18.70
2021,06,02,08,59,18.80
2021,06,02,09,00,18.90
2021,06,02,09,01,19.10
2021,06,02,09,02,19.20
2021,06,02,09,03,19.40
2021,06,02,09,04,19.50
2021,06,02,09,05,19.50
2021,06,02,09,06,19.40
2021,06,02,09,07,19.40
2021,06,02,09,08,19.30
2021,06,02,09,09,19.20
2021,06,02,09,10,19.10
2021,06,02,09,11,19.10
2021,06,02,09,12,19.00
2021,06,02,09,13,18.90
2021,06,02,09,14,18.90
2021,06,02,09,15,18.90
2021,06,02,09,16,19.00
2021,06,02,09,17,19.10
2021,06,02,09,18,19.20
2021,06,02,09,19,19.40
2021,06,02,09,20,19.50
2021,06,02,09,21,19.60
2021,06,02,09,22,19.70
2021,06,02,09,23,19.90
2021,06,02,09,24,20.00
2021,06,02,09,25,20.20
2021,06,02,09,26,20.30
2021,06,02,09,27,20.50
2021,06,02,09,28,20.60
2021,06,02,09,29,20.70
2021,06,02,09,30,20.80
2021,06,02,09,31,20.70
2021,06,02,09,32,20.50
2021,06,02,09,33,20.30
2021,06,02,09,34,20.20
2021,06,02,09,35,20.20
2021,06,02,09,36,20.30
2021,06,02,09,37,20.40
2021,06,02,09,38,20.50
2021,06,02,09,39,20.60
2021,06,02,09,40,20.70
2021,06,02,09,41,20.80
2021,06,02,09,42,20.80
2021,06,02,09,43,20.90
2021,06,02,09,44,20.80
2021,06,02,09,45,20.60
2021,06,02,09,46,20.50
2021,06,02,09,47,20.30
2021,06,02,09,48,20.20
2021,06,02,09,49,20.10
2021,06,02,09,50,20.00
2021,06,02,09,51,20.00
2021,06,02,09,52,20.10
2021,06,02,09,53,20.20
2021,06,02,09,54,20.20
2021,06,02,09,55,20.20
2021,06,02,09,56,20.30
2021,06,02,09,57,20.40
2021,06,02,09,58,20.50
2021,06,02,09,59,20.60
2021,06,02,10,00,20.60
2021,06,02,10,01,20.60
2021,06,02,10,02,20.70
2021,06,02,10,03,20.70
2021,06,02,10,04,20.80
2021,06,02,10,05,20.90
2021,06,02,10,06,20.90
2021,06,02,10,07,21.00
2021,06,02,10,08,21.10
2021,06,02,10,09,21.00
2021,06,02,10,10,20.90
2021,06,02,10,11,20.80
2021,06,02,10,12,20.60
2021,06,02,10,13,20.50
2021,06,02,10,14,20.40
2021,06,02,10,15,20.40
2021,06,02,10,16,20.50
2021,06,02,10,17,20.60
2021,06,02,10,18,20.70
2021,06,02,10,19,20.70
2021,06,02,10,20,20.80
2021,06,02,10,21,20.90
2021,06,02,10,22,21.00
2021,06,02,10,23,21.00
2021,06,02,10,24,21.10
2021,06,02,10,25,21.10
2021,06,02,10,26,21.10
2021,06,02,10,27,21.10
2021,06,02,10,28,21.10
2021,06,02,10,29,21.20
2021,06,02,10,30,21.10
2021,06,02,10,31,21.00
2021,06,02,10,32,20.80
2021,06,02,10,33,20.50
2021,06,02,10,34,20.20
2021,06,02,10,35,20.00
2021,06,02,10,36,19.80
2021,06,02,10,37,19.70
2021,06,02,10,38,19.50
2021,06,02,10,39,19.50
2021,06,02,10,40,19.50
2021,06,02,10,41,19.60
2021,06,02,10,42,19.60
2021,06,02,10,43,19.60
2021,06,02,10,44,19.60
2021,06,02,10,45,19.70
2021,06,02,10,46,19.70
2021,06,02,10,47,19.70
2021,06,02,10,48,19.80
2021,06,02,10,49,19.80
2021,06,02,10,50,19.90
2021,06,02,10,51,19.90
2021,06,02,10,52,20.10
2021,06,02,10,53,20.20
2021,06,02,10,54,20.30
2021,06,02,10,55,20.40
2021,06,02,10,56,20.40
2021,06,02,10,57,20.40
2021,06,02,10,58,20.40
2021,06,02,10,59,20.50
2021,06,02,11,00,20.60
2021,06,02,11,01,20.80
2021,06,02,11,02,20.90
2021,06,02,11,03,21.00
2021,06,02,11,04,21.10
2021,06,02,11,05,21.20
2021,06,02,11,06,21.30
2021,06,02,11,07,21.40
2021,06,02,11,08,21.40
2021,06,02,11,09,21.40
2021,06,02,11,10,21.40
2021,06,02,11,11,21.40
2021,06,02,11,12,21.50
2021,06,02,11,13,21.60
2021,06,02,11,14,21.60
2021,06,02,11,15,21.70
2021,06,02,11,16,21.80
2021,06,02,11,17,21.90
2021,06,02,11,18,21.90
2021,06,02,11,19,21.70
2021,06,02,11,20,21.60
2021,06,02,11,21,21.60
2021,06,02,11,22,21.60
2021,06,02,11,23,21.60
2021,06,02,11,24,21.70
2021,06,02,11,25,21.80
2021,06,02,11,26,22.00
2021,06,02,11,27,22.00
2021,06,02,11,28,22.00
2021,06,02,11,29,22.00
2021,06,02,11,30,22.10
2021,06,02,11,31,22.00
2021,06,02,11,32,22.00
2021,06,02,11,33,21.80
2021,06,02,11,34,21.80
2021,06,02,11,35,21.80
2021,06,02,11,36,21.90
2021,06,02,11,37,22.00
2021,06,02,11,38,22.10
2021,06,02,11,39,22.20
2021,06,02,11,40,22.30
2021,06,02,11,41,22.30
2021,06,02,11,42,22.30
2021,06,02,11,43,22.20
2021,06,02,11,44,22.10
2021,06,02,11,45,22.10
2021,06,02,11,46,22.10
2021,06,02,11,47,22.20
2021,06,02,11,48,22.40
2021,06,02,11,49,22.50
2021,06,02,11,50,22.60
2021,06,02,11,51,22.50
2021,06,02,11,52,22.40
2021,06,02,11,53,22.40
2021,06,02,11,54,22.40
2021,06,02,11,55,22.40
2021,06,02,11,56,22.30
2021,06,02,11,57,22.20
2021,06,02,11,58,22.10
2021,06,02,11,59,22.20
2021,06,02,12,00,22.30
2021,06,02,12,01,22.40
2021,06,02,12,02,22.40
2021,06,02,12,03,22.50
2021,06,02,12,04,22.50
2021,06,02,12,05,22.40
2021,06,02,12,06,22.40
2021,06,02,12,07,22.40
2021,06,02,12,08,22.30
2021,06,02,12,09,22.30
2021,06,02,12,10,22.30
2021,06,02,12,11,22.30
2021,06,02,12,12,22.30
2021,06,02,12,13,22.30
2021,06,02,12,14,22.20
2021,06,02,12,15,22.10
2021,06,02,12,16,22.20
2021,06,02,12,17,22.20
2021,06,02,12,18,22.30
2021,06,02,12,19,22.40
2021,06,02,12,20,22.50
2021,06,02,12,21,22.60
2021,06,02,12,22,22.70
2021,06,02,12,23,22.80
2021,06,02,12,24,22.70
2021,06,02,12,25,22.60
2021,06,02,12,26,22.50
2021,06,02,12,27,22.60
2021,06,02,12,28,22.70
2021,06,02,12,29,22.70
2021,06,02,12,30,22.80
2021,06,02,12,31,22.80
2021,06,02,12,32,22.80
2021,06,02,12,33,22.80
2021,06,02,12,34,22.90
2021,06,02,12,35,23.00
2021,06,02,12,36,23.10
2021,06,02,12,37,23.10
2021,06,02,12,38,23.10
2021,06,02,12,39,23.10
2021,06,02,12,40,23.10
2021,06,02,12,41,23.20
2021,06,02,12,42,23.20
2021,06,02,12,43,23.20
2021,06,02,12,44,23.30
2021,06,02,12,45,23.30
2021,06,02,12,46,23.40
2021,06,02,12,47,23.40
2021,06,02,12,48,23.40
2021,06,02,12,49,23.40
2021,06,02,12,50,23.40
2021,06,02,12,51,23.40
2021,06,02,12,52,23.40
2021,06,02,12,53,23.40
2021,06,02,12,54,23.40
2021,06,02,12,55,23.40
2021,06,02,12,56,23.40
2021,06,02,12,57,23.40
2021,06,02,12,58,23.60
2021,06,02,12,59,23.70
2021,06,02,13,00,23.80
2021,06,02,13,01,24.00
2021,06,02,13,02,24.10
2021,06,02,13,03,24.20
2021,06,02,13,04,24.30
2021,06,02,13,05,24.40
2021,06,02,13,06,24.30
2021,06,02,13,07,24.10
2021,06,02,13,08,24.10
2021,06,02,13,09,24.10
2021,06,02,13,10,24.10
2021,06,02,13,11,24.10
2021,06,02,13,12,24.10
2021,06,02,13,13,24.10
2021,06,02,13,14,24.20
2021,06,02,13,15,24.30
2021,06,02,13,16,24.40
2021,06,02,13,17,24.50
2021,06,02,13,18,24.50
2021,06,02,13,19,24.40
2021,06,02,13,20,24.50
2021,06,02,13,21,24.50
2021,06,02,13,22,24.60
2021,06,02,13,23,24.70
2021,06,02,13,24,24.70
2021,06,02,13,25,24.80
2021,06,02,13,26,24.80
2021,06,02,13,27,24.80
2021,06,02,13,28,24.80
2021,06,02,13,29,24.80
2021,06,02,13,30,24.80
2021,06,02,13,31,24.90
2021,06,02,13,32,24.90
2021,06,02,13,33,25.10
2021,06,02,13,34,25.20
2021,06,02,13,35,25.20
2021,06,02,13,36,25.30
2021,06,02,13,37,25.30
2021,06,02,13,38,25.30
2021,06,02,13,39,25.20
2021,06,02,13,40,25.20
2021,06,02,13,41,25.20
2021,06,02,13,42,25.30
2021,06,02,13,43,25.30
2021,06,02,13,44,25.40
2021,06,02,13,45,25.50
2021,06,02,13,46,25.50
2021,06,02,13,47,25.70
2021,06,02,13,48,25.80
2021,06,02,13,49,26.00
2021,06,02,13,50,26.10
2021,06,02,13,51,26.30
2021,06,02,13,52,26.40
2021,06,02,13,53,26.50
2021,06,02,13,54,26.60
2021,06,02,13,55,26.60
2021,06,02,13,56,26.60
2021,06,02,13,57,26.70
2021,06,02,13,58,26.80
2021,06,02,13,59,26.80
2021,06,02,14,00,26.80
2021,06,02,14,01,26.80
2021,06,02,14,02,26.60
2021,06,02,14,03,26.70
2021,06,02,14,04,26.80
2021,06,02,14,05,26.80
2021,06,02,14,06,26.80
2021,06,02,14,07,26.80
2021,06,02,14,08,26.90
2021,06,02,14,09,27.00
2021,06,02,14,10,27.10
2021,06,02,14,11,27.10
2021,06,02,14,12,27.10
2021,06,02,14,13,27.20
2021,06,02,14,14,27.30
2021,06,02,14,15,27.30
2021,06,02,14,16,27.40
2021,06,02,14,17,27.60
2021,06,02,14,18,27.60
2021,06,02,14,19,27.70
2021,06,02,14,20,27.70
2021,06,02,14,21,27.80
2021,06,02,14,22,27.80
2021,06,02,14,23,27.90
2021,06,02,14,24,27.90
2021,06,02,14,25,27.90
2021,06,02,14,26,27.90
2021,06,02,14,27,28.00
2021,06,02,14,28,28.00
2021,06,02,14,29,28.00
2021,06,02,14,30,28.10
2021,06,02,14,31,28.00
2021,06,02,14,32,28.00
2021,06,02,14,33,28.00
2021,06,02,14,34,27.90
2021,06,02,14,35,27.90
2021,06,02,14,36,27.80
2021,06,02,14,37,27.70
2021,06,02,14,38,27.60
2021,06,02,14,39,27.60
2021,06,02,14,40,27.50
2021,06,02,14,41,27.40
2021,06,02,14,42,27.40
2021,06,02,14,43,27.40
2021,06,02,14,44,27.40
2021,06,02,14,45,27.30
2021,06,02,14,46,27.30
2021,06,02,14,47,27.30
2021,06,02,14,48,27.30
2021,06,02,14,49,27.30
2021,06,02,14,50,27.30
2021,06,02,14,51,27.30
2021,06,02,14,52,27.30
2021,06,02,14,53,27.30
2021,06,02,14,54,27.30
2021,06,02,14,55,27.30
2021,06,02,14,56,27.30
2021,06,02,14,57,27.30
2021,06,02,14,58,27.40
2021,06,02,14,59,27.40
2021,06,02,15,00,27.40
2021,06,02,15,01,27.50
2021,06,02,15,02,27.60
2021,06,02,15,03,27.60
2021,06,02,15,04,27.50
2021,06,02,15,05,27.40
2021,06,02,15,06,27.40
2021,06,02,15,07,27.40
2021,06,02,15,08,27.40
2021,06,02,15,09,27.40
2021,06,02,15,10,27.40
2021,06,02,15,11,27.50
2021,06,02,15,12,27.60
2021,06,02,15,13,27.60
2021,06,02,15,14,27.70
2021,06,02,15,15,27.70
2021,06,02,15,16,27.70
2021,06,02,15,17,27.70
2021,06,02,15,18,27.70
2021,06,02,15,19,27.70
2021,06,02,15,20,27.70
2021,06,02,15,21,27.60
2021,06,02,15,22,27.50
2021,06,02,15,23,27.40
2021,06,02,15,24,27.40
2021,06,02,15,25,27.40
2021,06,02,15,26,27.30
2021,06,02,15,27,27.30
2021,06,02,15,28,27.20
2021,06,02,15,29,27.20
2021,06,02,15,30,27.20
2021,06,02,15,31,27.20
2021,06,02,15,32,27.30
2021,06,02,15,33,27.30
2021,06,02,15,34,27.30
2021,06,02,15,35,27.30
2021,06,02,15,36,27.30
2021,06,02,15,37,27.30
2021,06,02,15,38,27.40
2021,06,02,15,39,27.40
2021,06,02,15,40,27.50
2021,06,02,15,41,27.60
2021,06,02,15,42,27.60
2021,06,02,15,43,27.60
2021,06,02,15,44,27.60
2021,06,02,15,45,27.60
2021,06,02,15,46,27.70
2021,06,02,15,47,27.70
2021,06,02,15,48,27.70
2021,06,02,15,49,27.70
2021,06,02,15,50,27.80
2021,06,02,15,51,27.80
2021,06,02,15,52,27.90
2021,06,02,15,53,27.90
2021,06,02,15,54,27.90
2021,06,02,15,55,28.00
2021,06,02,15,56,28.00
2021,06,02,15,57,28.00
2021,06,02,15,58,28.10
2021,06,02,15,59,28.10
2021,06,02,16,00,28.10
2021,06,02,16,01,28.20
2021,06,02,16,02,28.20
2021,06,02,16,03,28.20
2021,06,02,16,04,28.20
2021,06,02,16,05,28.30
2021,06,02,16,06,28.30
2021,06,02,16,07,28.40
2021,06,02,16,08,28.40
2021,06,02,16,09,28.30
2021,06,02,16,10,28.30
2021,06,02,16,11,28.20
2021,06,02,16,12,28.20
2021,06,02,16,13,28.20
2021,06,02,16,14,28.20
2021,06,02,16,15,28.20
2021,06,02,16,16,28.20
2021,06,02,16,17,28.20
2021,06,02,16,18,28.20
2021,06,02,16,19,28.20
2021,06,02,16,20,28.20
2021,06,02,16,21,28.20
2021,06,02,16,22,28.20
2021,06,02,16,23,28.10
2021,06,02,16,24,28.10
2021,06,02,16,25,28.00
2021,06,02,16,26,27.90
2021,06,02,16,27,27.90
2021,06,02,16,28,27.80
2021,06,02,16,29,27.80
2021,06,02,16,30,27.70
2021,06,02,16,31,27.70
2021,06,02,16,32,27.70
2021,06,02,16,33,27.70
2021,06,02,16,34,27.70
2021,06,02,16,35,27.70
2021,06,02,16,36,27.70
2021,06,02,16,37,27.80
2021,06,02,16,38,27.80
2021,06,02,16,39,27.70
2021,06,02,16,40,27.70
2021,06,02,16,41,27.70
2021,06,02,16,42,27.60
2021,06,02,16,43,27.60
2021,06,02,16,44,27.60
2021,06,02,16,45,27.60
2021,06,02,16,46,27.70
2021,06,02,16,47,27.70
2021,06,02,16,48,27.70
2021,06,02,16,49,27.80
2021,06,02,16,50,27.80
2021,06,02,16,51,27.80
2021,06,02,16,52,27.90
2021,06,02,16,53,27.90
2021,06,02,16,54,27.90
2021,06,02,16,55,27.90
2021,06,02,16,56,27.90
2021,06,02,16,57,27.90
2021,06,02,16,58,27.90
2021,06,02,16,59,27.90
2021,06,02,17,00,27.80
2021,06,02,17,01,27.70
2021,06,02,17,02,27.70
2021,06,02,17,03,27.60
2021,06,02,17,04,27.60
2021,06,02,17,05,27.60
2021,06,02,17,06,27.60
2021,06,02,17,07,27.60
2021,06,02,17,08,27.70
2021,06,02,17,09,27.70
2021,06,02,17,10,27.70
2021,06,02,17,11,27.60
2021,06,02,17,12,27.60
2021,06,02,17,13,27.50
2021,06,02,17,14,27.40
2021,06,02,17,15,27.40
2021,06,02,17,16,27.40
2021,06,02,17,17,27.40
2021,06,02,17,18,27.40
2021,06,02,17,19,27.40